Weather in Chulanovo

Russia / Belgorod Oblast     50°40′47″N   36°00′40″E
temp.,
°C
wind,
m/s
gust,
m/s
humid.,
%
clouds,
%
prec.,
mm/h
press.,
hPa
HPBL,
m
8 march, mon
mon800:00−1w91593100 0.3 1008895
03:00−1wsw71390100 0.5 1007687
06:00−1wsw71294100 0.4 1006727
09:00−1wsw71192100 0.8 1007816
12:00−1nw5789100 1.0 1008644
15:000wnw5774100 1.2 10081076
18:00−1wnw487596 0.2 1009547
21:00−2wnw478298 0.4 1010580
9 march, tue
tue900:00−3wnw359069 0.1 1011348
03:00−4nw469184 0.4 1012396
06:00−6nnw589089 0.0 1013406
09:00−7nw578691 0.1 1015409
12:00−6nw577898 0.1 1016763
15:00−5nnw677599 0.1 1018943
18:00−6nnw5776100 0.1 1020939
21:00−7nnw478099 0.1 1022858
10 march, wed
wed1000:00−9nnw477960 0.0 1024520
03:00−10nnw468430 0.0 1025343
06:00−11nnw35860 0.0 1026254
09:00−10nnw23810 0.0 1027270
12:00−7nw346749 0.0 1027593
15:00−5nw336025 0.0 1027748
18:00−6nnw236895 0.0 1026533
21:00−7ne228487 0.0 1027193
11 march, thu
thu1100:00−8ene459194 0.3 1029334
03:00−11ene578996 0.8 1030381
06:00−12ene4677100 0.3 1031349
09:00−12e466486 0.3 1032384
12:00−9e45476 0.0 1033628
15:00−7ese33403 0.0 1032897
18:00−7ese34460 0.0 1031716
21:00−8ese46560 0.0 1032332
12 march, fri
fri1200:00−9se48590 0.0 1032364
03:00−9sse59600 0.0 1031357
06:00−10sse5105619 0.0 1030364
09:00−8sse7114960 0.0 1030500
12:00−5s81245100 0.0 1028723
15:00−3s81243100 0.0 1026930
18:00−3s81442100 0.0 1024976
21:00−3s91561100 0.4 1024913